Showing default

ARABSAT 5C, 37810

Orbit data source: Space-Track

ARABSAT 5C, 37810 is a payload satellite owned by Arabsat (SA) in GEO that was launched on Wed, 21 Sep 2011 UTC via an ARIANE 5ECA launch vehicle from the French Guiana (FRGUI). Payload-class satellites include a variety of spacecraft equipped with specific instruments for various scientific and technological missions. These include communications satellites like Starlink; space stations such as the ISS; scientific satellites like the Hubble; Earth observation satellites from companies like Planet Labs, Umbra, and HawkEye 360; GPS; miniature CubeSats for education and research; and military/defense satellites.

Not visible in the next 10 days
Identifier
37810, 2011-049B
Orbit
GEO
Country
Flag of ABAB
Related business
Manufacturer
Astrium/Toulouse
Mission
Operational Commercial Communications
Bus & Motor
EUROSTAR 3000, R-4D-15
Mass
4,619 kg wet, ~2,000 kg dry
Launch date (UTC)
2011-09-21 (14 years ago)
Launch vehicle
ARIANE 5ECA
Launch site
French Guiana (FRGUI)
Object type
Payload
Rocket body
Debris
Shape & HBR
Box + 2 Pan + 1 Dish, 15.4 m
Radar Cross Section
26.994 m², Large (>1 m²)

Expand to show TLE details & history
Last TLE update: 12 hours ago

TLE from 12 hours ago
0 ARABSAT 5C
1 37810U 11049B   25261.15777388  .00000103  00000-0  00000-0 0  9990
2 37810   0.0530   7.7157 0005017 182.6151 243.8109  1.00269548 51304
Epoch: 2025-09-18T03:47Z
TLE epoch observation values (Epoch: 2025-09-18T03:47:11.663Z)
Latitude
0.0104°
Longitude
19.96964°
Altitude
35,796.026 km
Speed
3.074 km/s
True Right ascension
04h 56m 21s
True Declination
0° 00' 37"
Sunlit
Object was in daylight at epoch
Visualization orbit readout
Latitude
Unknown
Longitude
Unknown
Altitude
Unknown
Speed
Unknown
Apparent Right ascension
Unknown
Apparent Declination
Unknown
Sunlit
N/A
Visualization observer readout
Local Sidereal Time
08:10:40
Azimuth
Unknown
Elevation
Unknown
Doppler factor
Unknown
Orbital elements
Apogee altitude
35,809.447 km
Perigee altitude
35,767.138 km
Semi-major axis
42,166.429 km
Eccentricity
0.0005
Inclination
0.053°
RAAN
7.7157°
Arg. of periapsis
182.6151°
True anomaly
243.75933°
Mean anomaly
243.8109°
Eccentric anomaly
243.78511°
Mean motion
0.25066 °/min
Orbital period
1,436.18 mins
BSTAR
0
Loading maneuver chart data...
Computing Atmospheric mass density...
Loading historical data...
Loading historical data...
Loading historical data...
Loading historical data...
Loading historical data...
Loading historical data...
Loading historical data...
Other satellites on launch #49 in the year 2011 (2011-09-21 UTC)

Documentation

Showing up to 5 results
|